N1YZ Weather Reports


time (UTC)temp
F
wind
direction
speed
knots
gust
knots
rain 1hr
in
rain 24hr
in
rain mn
in
humidity
%
barometer
mb
20260503203859 71 28 0.0 0.0 0.00 0.00 0.00 44 1038.2
20260503203356 72 7 0.0 0.9 0.00 0.00 0.00 37 1038.1
20260503202853 73 52 0.0 0.0 0.00 0.00 0.00 39 1038.3
20260503202351 72 90 0.0 0.0 0.00 0.00 0.00 38 1038.5
20260503201849 71 38 0.0 0.0 0.00 0.00 0.00 39 1038.5
20260503201346 71 191 1.7 1.7 0.00 0.00 0.00 38 1038.5
20260503200844 71 177 1.7 1.7 0.00 0.00 0.00 41 1038.6
20260503200339 71 40 0.0 0.0 0.00 0.00 0.00 42 1038.8
20260503195837 72 33 0.0 0.0 0.00 0.00 0.00 41 1038.8
20260503195333 72 358 0.0 0.0 0.00 0.00 0.00 40 1038.8
20260503194830 72 47 0.0 0.0 0.00 0.00 0.00 44 1039.0
20260503194326 72 354 0.0 0.0 0.00 0.00 0.00 38 1039.1
20260503193823 72 33 0.0 0.0 0.00 0.00 0.00 37 1039.2
20260503193319 72 25 0.0 0.0 0.00 0.00 0.00 36 1039.3
20260503192815 72 12 0.0 0.9 0.00 0.00 0.00 39 1039.4
20260503192310 72 171 1.7 2.6 0.00 0.00 0.00 38 1039.2
20260503191807 71 178 1.7 1.7 0.00 0.00 0.00 37 1039.6
20260503191304 72 8 0.9 1.7 0.00 0.00 0.00 38 1039.5
20260503190801 72 135 0.0 0.0 0.00 0.00 0.00 37 1039.7
20260503190258 71 69 0.0 0.0 0.00 0.00 0.00 35 1039.9
20260503185754 72 193 0.9 1.7 0.00 0.00 0.00 35 1039.9
20260503185250 72 36 0.0 0.0 0.00 0.00 0.00 33 1039.9
20260503184745 72 20 0.0 0.0 0.00 0.00 0.00 38 1040.1
20260503184242 72 69 0.0 0.0 0.00 0.00 0.00 42 1040.0
20260503183737 72 40 0.0 0.0 0.00 0.00 0.00 39 1040.4
20260503183235 71 28 0.0 0.0 0.00 0.00 0.00 39 1040.4
20260503182733 71 21 0.0 0.9 0.00 0.00 0.00 35 1040.4
20260503182231 72 28 0.0 0.0 0.00 0.00 0.00 41 1040.4
20260503181722 70 348 0.9 0.9 0.00 0.00 0.00 39 1040.5
20260503181219 70 6 0.0 0.9 0.00 0.00 0.00 37 1040.7
20260503180715 71 183 1.7 2.6 0.00 0.00 0.00 39 1040.5
20260503180213 72 99 0.9 1.7 0.00 0.00 0.00 38 1040.5
20260503175710 71 100 0.9 1.7 0.00 0.00 0.00 37 1040.6
20260503175208 70 346 0.9 1.7 0.00 0.00 0.00 40 1040.6
20260503174703 70 63 0.9 0.9 0.00 0.00 0.00 41 1040.5
20260503174201 70 173 0.9 0.9 0.00 0.00 0.00 36 1040.9
20260503173656 70 332 0.0 0.0 0.00 0.00 0.00 37 1040.5
20260503173152 70 138 0.0 0.9 0.00 0.00 0.00 38 1040.9
20260503172649 70 161 1.7 1.7 0.00 0.00 0.00 39 1040.9
20260503172147 68 168 0.0 0.9 0.00 0.00 0.00 42 1041.0
20260503171643 69 6 0.0 0.0 0.00 0.00 0.00 41 1041.2
20260503171141 69 181 0.9 1.7 0.00 0.00 0.00 38 1040.9
20260503170637 69 154 0.0 1.7 0.00 0.00 0.00 36 1041.2
20260503170135 69 9 0.0 0.0 0.00 0.00 0.00 40 1041.3
20260503150526 64 221 0.0 0.0 0.00 0.00 0.00 52 1041.6
20260503131419 51 12 0.0 0.0 0.00 0.00 0.00 85 1041.3
20260503130915 51 40 0.0 0.0 0.00 0.00 0.00 85 1041.3
20260503130413 51 168 0.0 0.0 0.00 0.00 0.00 86 1041.4
20260503110812 44 357 0.0 0.0 0.00 0.00 0.00 95 1040.1
20260503110309 44 357 0.0 0.0 0.00 0.00 0.00 94 1040.0
20260503100235 46 356 0.0 0.0 0.00 0.00 0.00 91 1039.4
20260503090154 48 356 0.0 0.0 0.00 0.00 0.00 88 1039.2
20260503081624 49 355 0.0 0.0 0.00 0.00 0.00 81 1039.1
20260503081121 50 355 0.0 0.0 0.00 0.00 0.00 82 1038.9
20260503080617 50 355 0.0 0.0 0.00 0.00 0.00 81 1039.0
20260503080114 50 355 0.0 0.0 0.00 0.00 0.00 81 1039.0
20260503072551 50 354 0.0 0.0 0.00 0.00 0.00 81 1038.8
20260503072048 50 354 0.0 0.0 0.00 0.00 0.00 82 1038.6
20260503071544 50 354 0.0 0.0 0.00 0.00 0.00 83 1038.4
20260503071042 50 354 0.0 0.0 0.00 0.00 0.00 84 1038.7
20260503070538 50 354 0.0 0.0 0.00 0.00 0.00 84 1038.5
20260503054951 49 1 0.0 0.0 0.00 0.00 0.00 86 1038.2
20260503054447 50 1 0.0 0.0 0.00 0.00 0.00 85 1038.3
20260503053945 50 1 0.0 0.0 0.00 0.00 0.00 84 1038.2
20260503053443 50 1 0.0 0.0 0.00 0.00 0.00 82 1038.4
20260503052939 50 1 0.0 0.0 0.00 0.00 0.00 84 1038.2
20260503052437 50 1 0.0 0.0 0.00 0.00 0.00 84 1038.1
20260503051933 50 1 0.0 0.0 0.00 0.00 0.00 84 1037.9
20260503051429 50 1 0.0 0.0 0.00 0.00 0.00 84 1037.9
20260503050926 50 1 0.0 0.0 0.00 0.00 0.00 84 1037.5
20260503050422 50 1 0.0 0.0 0.00 0.00 0.00 82 1037.8
20260503045920 50 1 0.0 0.0 0.00 0.02 0.02 82 1037.7
20260503045417 50 1 0.0 0.0 0.00 0.02 0.02 82 1037.6
20260503044914 50 1 0.0 0.0 0.00 0.02 0.02 81 1037.6
20260503044411 51 1 0.0 0.0 0.00 0.02 0.02 81 1037.7
20260503043908 51 1 0.0 0.0 0.00 0.02 0.02 81 1037.6
20260503043405 51 1 0.0 0.0 0.00 0.02 0.02 81 1037.6
20260503042901 52 1 0.0 0.0 0.00 0.02 0.02 82 1037.6
20260503042358 52 1 0.0 0.0 0.00 0.02 0.02 81 1037.4
20260503041854 52 1 0.0 0.0 0.00 0.02 0.02 80 1037.1
20260503041351 52 1 0.0 0.0 0.00 0.02 0.02 80 1037.3
20260503040849 52 1 0.0 0.0 0.00 0.02 0.02 79 1037.3
20260503040346 52 1 0.0 0.0 0.00 0.02 0.02 76 1037.3
20260503035843 52 1 0.0 0.0 0.00 0.02 0.02 77 1037.3
20260503035340 52 1 0.0 0.0 0.00 0.02 0.02 77 1037.2
20260503034837 53 1 0.0 0.0 0.00 0.02 0.02 77 1037.3
20260503034335 53 1 0.0 0.0 0.00 0.02 0.02 77 1037.4
20260503033832 53 1 0.0 0.0 0.00 0.02 0.02 76 1037.2
20260503033329 53 1 0.0 0.0 0.00 0.02 0.02 75 1037.2
20260503032827 53 1 0.0 0.0 0.00 0.02 0.02 72 1037.3
20260503032326 53 1 0.0 0.0 0.00 0.02 0.02 74 1037.4
20260503031823 54 1 0.0 0.0 0.00 0.02 0.02 73 1037.2
20260503031320 54 1 0.0 0.0 0.00 0.02 0.02 72 1037.4
20260503030816 54 1 0.0 0.0 0.00 0.02 0.02 70 1037.3
20260503030313 54 1 0.0 0.0 0.00 0.02 0.02 69 1037.2
20260503025810 54 1 0.0 0.0 0.00 0.02 0.02 69 1037.3
20260503025308 54 1 0.0 0.0 0.00 0.02 0.02 69 1037.1
20260503024804 54 1 0.0 0.0 0.00 0.02 0.02 69 1037.2
20260503024301 54 1 0.0 0.0 0.00 0.02 0.02 66 1037.1
20260503023758 54 1 0.0 0.0 0.00 0.02 0.02 63 1037.1
20260503023255 54 1 0.0 0.0 0.00 0.02 0.02 63 1037.1
20260503022751 54 1 0.0 0.0 0.00 0.02 0.02 69 1037.1
20260503022250 55 1 0.0 0.0 0.00 0.02 0.02 69 1037.0
20260503021748 55 1 0.0 0.0 0.00 0.02 0.02 67 1037.0
20260503021243 55 1 0.0 0.0 0.00 0.02 0.02 68 1036.9
20260503020742 55 1 0.0 0.0 0.00 0.02 0.02 66 1036.9
20260503020239 55 1 0.0 0.0 0.00 0.02 0.02 65 1036.8
20260503015735 55 1 0.0 0.0 0.00 0.02 0.02 66 1036.7
20260503015232 55 1 0.0 0.0 0.00 0.02 0.02 64 1036.6
20260503014728 56 1 0.0 0.0 0.00 0.02 0.02 64 1036.5
20260503014226 56 1 0.0 0.0 0.00 0.02 0.02 64 1036.4
20260503013723 56 1 0.0 0.0 0.00 0.02 0.02 62 1036.2
20260503013221 56 1 0.0 0.0 0.00 0.02 0.02 61 1036.4
20260503012718 56 1 0.0 0.0 0.00 0.02 0.02 60 1036.1
20260503012215 57 1 0.0 0.0 0.00 0.02 0.02 60 1035.9
20260503011711 57 1 0.0 0.0 0.00 0.02 0.02 62 1036.1
20260503011209 57 1 0.0 0.0 0.00 0.02 0.02 59 1036.1
20260503010704 57 1 0.0 0.0 0.00 0.02 0.02 59 1035.9
20260503010202 57 1 0.0 0.0 0.00 0.02 0.02 57 1035.8
20260503005659 58 1 0.0 0.0 0.00 0.02 0.02 57 1035.9
20260503005157 58 1 0.0 0.0 0.00 0.02 0.02 55 1035.9
20260503004653 59 1 0.0 0.0 0.00 0.02 0.02 54 1035.8
20260503004151 59 1 0.0 0.0 0.00 0.02 0.02 53 1035.8
20260503003648 59 1 0.0 0.0 0.00 0.02 0.02 53 1035.5
20260503003145 60 1 0.0 0.0 0.00 0.02 0.02 51 1035.4
20260503002641 60 1 0.0 0.0 0.00 0.02 0.02 52 1035.5
20260503002138 60 1 0.0 0.0 0.00 0.02 0.02 52 1035.4
20260503001634 61 1 0.0 0.0 0.00 0.02 0.02 52 1035.4
20260503001131 61 1 0.0 0.0 0.00 0.02 0.02 51 1035.3
20260503000629 62 1 0.0 0.0 0.00 0.02 0.02 52 1035.2
20260503000126 62 1 0.0 0.0 0.00 0.02 0.02 52 1035.1
20260502235622 62 1 0.0 0.0 0.00 0.02 0.02 48 1035.0
20260502235121 62 1 0.0 0.0 0.00 0.02 0.02 48 1035.2
20260502234616 63 1 0.0 0.0 0.00 0.02 0.02 51 1034.7
20260502234115 63 28 0.0 0.0 0.00 0.02 0.02 52 1034.6
20260502233610 63 3 0.0 0.0 0.00 0.02 0.02 55 1034.7
20260502233107 64 351 0.0 0.0 0.00 0.02 0.02 52 1034.7
20260502232603 64 43 0.0 0.0 0.00 0.02 0.02 51 1034.7
20260502232101 64 54 0.0 0.0 0.00 0.02 0.02 53 1034.6
20260502231557 64 78 0.0 0.0 0.00 0.02 0.02 53 1034.6
20260502231055 64 19 0.0 0.0 0.00 0.02 0.02 48 1035.0
20260502230553 65 44 0.0 0.0 0.00 0.02 0.02 45 1034.7
20260502230051 65 12 0.0 0.0 0.00 0.02 0.02 45 1034.7
20260502225546 65 104 0.0 0.0 0.00 0.02 0.02 47 1034.6
20260502225044 65 49 0.0 0.0 0.00 0.02 0.02 44 1034.5
20260502224540 66 183 0.0 0.0 0.00 0.02 0.02 44 1034.5
20260502224037 66 180 1.7 1.7 0.00 0.02 0.02 45 1034.6
20260502223535 66 344 0.0 0.0 0.00 0.02 0.02 47 1034.7
20260502223033 66 22 0.0 0.0 0.00 0.02 0.02 47 1034.5
20260502222530 67 125 0.9 1.7 0.00 0.02 0.02 43 1034.7
20260502222026 67 169 1.7 2.6 0.00 0.02 0.02 40 1034.5
20260502221522 67 53 0.0 0.0 0.00 0.02 0.02 45 1034.6
20260502221020 67 139 0.9 1.7 0.00 0.02 0.02 49 1034.5
20260502220515 68 29 1.7 1.7 0.00 0.02 0.02 42 1034.7
20260502220012 70 11 0.0 0.0 0.00 0.02 0.02 42 1034.5
20260502215509 71 173 1.7 1.7 0.00 0.02 0.02 38 1034.4
20260502215006 69 168 0.9 1.7 0.00 0.02 0.02 40 1034.6
20260502214503 69 162 0.9 1.7 0.00 0.02 0.02 42 1034.4
20260502214000 69 92 0.9 0.9 0.00 0.02 0.02 44 1034.4
20260502213456 69 204 0.0 0.0 0.00 0.02 0.02 43 1034.3
20260502212955 69 158 0.0 1.7 0.00 0.02 0.02 40 1034.2
20260502212453 69 188 0.9 0.9 0.00 0.02 0.02 37 1034.1
20260502211950 68 169 0.0 0.9 0.00 0.02 0.02 40 1034.4
20260502211446 69 170 1.7 2.6 0.00 0.02 0.02 40 1034.5
20260502210944 68 154 0.9 1.7 0.00 0.02 0.02 39 1034.3
20260502210440 68 14 0.0 0.0 0.00 0.02 0.02 43 1034.3
20260502205938 68 109 0.9 1.7 0.00 0.02 0.02 43 1034.3
20260502205434 68 162 0.9 1.7 0.00 0.02 0.02 40 1034.4
20260502204931 68 55 0.0 0.0 0.00 0.02 0.02 47 1034.4
20260502204428 69 172 0.9 0.9 0.00 0.02 0.02 41 1034.6